Regional Weather Roundup
Issued by NWS

Home | Current Version | Previous Version | Text Only | Print | Product List | Glossary Off
Versions: 1 2 3 4 5 6 7 8 9 10 11 12 13 14 15 16 17 18 19 20 21 22 23 24 25 26 27 28 29 30 31 32 33 34 35 36 37 38 39 40 41 42 43 44 45 46 47 48 49 50

000
ASUS44 KFWD 050015
RWRTX
NORTH TEXAS HOURLY WEATHER ROUNDUP
NATIONAL WEATHER SERVICE FORT WORTH TX
700 PM CDT MON MAY 04 2015

NOTE: "FAIR" INDICATES FEW OR NO CLOUDS BELOW 12,000 FEET WITH NO
SIGNIFICANT WEATHER AND/OR OBSTRUCTIONS TO VISIBILITY.

TXZ118-119-050100-
DALLAS/FORT WORTH METROPLEX

CITY           SKY/WX    TMP DP  RH WIND       PRES   REMARKS
DFW AIRPORT    PTSUNNY   77  57  50 SE18G24   29.99F
6HR MIN TEMP:  77; 6HR MAX TEMP:  81;

DALLAS LOVE    CLOUDY    79  56  45 SE17G23   30.00F
6HR MIN TEMP:  79; 6HR MAX TEMP:  84;

FTW MEACHAM    PTSUNNY   79  59  50 SE17G25   29.97F
6HR MIN TEMP:  76; 6HR MAX TEMP:  83;

DAL-EXECUTIVE  PTSUNNY   77  57  50 SE12G21   30.01S
6HR MIN TEMP:  77; 6HR MAX TEMP:  82;

FTW-ALLIANCE   PTSUNNY   78  59  51 SE17G26   29.98F
6HR MIN TEMP:  77; 6HR MAX TEMP:  82;

FTW-NAS-JRB    MOSUNNY   81  58  45 SE18G24   29.98F
6HR MIN TEMP:  77; 6HR MAX TEMP:  84;

FTW-SPINKS     MOSUNNY   79  57  47 E17G29    30.00F
ARLINGTON      MOSUNNY   79  57  46 E17G28    30.00S
6HR MIN TEMP:  79; 6HR MAX TEMP:  84;

GRAND PRAIRIE  SUNNY     79  59  50 SE15G22   30.02S
MESQUITE       SUNNY     79  55  44 SE12      30.02F
LANCASTER      PTSUNNY   75  54  47 SE10G17   30.02F
6HR MIN TEMP:  74; 6HR MAX TEMP:  80;

$$

TXZ091>094-102>105-117-120-121-131>134-050100-
NORTH CENTRAL TEXAS

CITY           SKY/WX    TMP DP  RH WIND       PRES   REMARKS
SHRMAN/DENISON MOSUNNY   79  61  54 SE12      30.02F
6HR MIN TEMP:  79; 6HR MAX TEMP:  83;

GAINESVILLE    MOSUNNY   75  59  56 SE13G18   30.01F
6HR MIN TEMP:  75; 6HR MAX TEMP:  80;

BOWIE          PTSUNNY   77  56  49 SE8G17    29.98F
6HR MIN TEMP:  75; 6HR MAX TEMP:  80;

BRIDGEPORT     MOSUNNY   76  61  58 SE12      29.99F
6HR MIN TEMP:  75; 6HR MAX TEMP:  80;

DECATUR        PTSUNNY   78  56  47 SE14G21   29.99F
6HR MIN TEMP:  75; 6HR MAX TEMP:  80;

DENTON         PTSUNNY   78  58  49 SE16G26   29.99F
6HR MIN TEMP:  78; 6HR MAX TEMP:  83;

MCKINNEY       PTSUNNY   79  59  50 SE14      30.01F
6HR MIN TEMP:  78; 6HR MAX TEMP:  82;

GREENVILLE     MOSUNNY   77  50  38 SE7       30.03F
ROCKWALL       PTSUNNY   79  58  49 SE8G18    30.02S
6HR MIN TEMP:  79; 6HR MAX TEMP:  83;

TERRELL        PTSUNNY   83  56  39 SE8       30.03F
6HR MIN TEMP:  83; 6HR MAX TEMP:  87; 6HR PCP: TRACE;

WAXAHACHIE     MOSUNNY   76  57  51 SE12      30.02F
6HR MIN TEMP:  76; 6HR MAX TEMP:  82;

CLEBURNE       MOSUNNY   77  61  57 SE14G22   30.01S
GRANBURY       MOSUNNY   81  59  47 SE14G22   29.98F
6HR MIN TEMP:  78; 6HR MAX TEMP:  83;

$$

TXZ083>090-098>101-113>116-127>130-139>142-154-155-050100-
WESTERN NORTH TEXAS

CITY           SKY/WX    TMP DP  RH WIND       PRES   REMARKS
WICHITA FALLS  MOSUNNY   78  56  46 SE18      29.94F
6HR MIN TEMP:  77; 6HR MAX TEMP:  81;

WF-KICKAPOO    MOSUNNY   81  57  44 SE16      29.96F
6HR MIN TEMP:  80; 6HR MAX TEMP:  83;

VERNON         MOSUNNY   80  51  36 SE15G24   29.93F
ABILENE        PTSUNNY   76  61  59 SE15      29.93F
6HR MIN TEMP:  73; 6HR MAX TEMP:  83; 6HR PCP: TRACE;

ABILENE-DYESS  MOSUNNY   76  62  62 S17G23    29.91F
6HR MIN TEMP:  70; 6HR MAX TEMP:  82; 6HR PCP:  0.06;

BRECKENRIDGE   PTSUNNY   80  57  44 SE20G25   29.93F
6HR MIN TEMP:  78; 6HR MAX TEMP:  85;

GRAHAM         MOSUNNY   78  61  56 SE14G20   29.93F
6HR MIN TEMP:  75; 6HR MAX TEMP:  82;

MINERAL WELLS  MOSUNNY   77  60  55 SE16G24   29.95F
6HR MIN TEMP:  75; 6HR MAX TEMP:  82;

STEPHENVILLE   PTSUNNY   77  58  52 SE15      30.00F
6HR MIN TEMP:  75; 6HR MAX TEMP:  81;

COMANCHE       PTSUNNY   77  61  57 SE10G21   29.97F
6HR MIN TEMP:  77; 6HR MAX TEMP:  83;

BROWNWOOD      PTSUNNY   77  59  53 SE16G23   29.95F
COLEMAN        CLOUDY    76  60  58 SE17      29.94F
6HR MIN TEMP:  76; 6HR MAX TEMP:  82;

BRADY          PTSUNNY   75  59  57 SE14      29.95F
$$

TXZ143>147-156>162-174-175-050100-
CENTRAL TEXAS

CITY           SKY/WX    TMP DP  RH WIND       PRES   REMARKS
WACO           SUNNY     78  57  48 SE14      30.00S
6HR MIN TEMP:  78; 6HR MAX TEMP:  84;

WACO-MCGREGOR  MOSUNNY   81  57  44 SE14      30.01R
6HR MIN TEMP:  81; 6HR MAX TEMP:  84;

HILLSBORO      SUNNY     78  56  47 SE13G18   30.01S
6HR MIN TEMP:  78; 6HR MAX TEMP:  82;

CORSICANA      MOSUNNY   79  53  40 SE9       30.03F
6HR MIN TEMP:  78; 6HR MAX TEMP:  83;

MEXIA          SUNNY     78  55  45 SE14      30.02S
6HR MIN TEMP:  77; 6HR MAX TEMP:  81;

HEARNE         SUNNY     80  58  47 E7        30.02S
6HR MIN TEMP:  78; 6HR MAX TEMP:  82;

CAMERON        MOSUNNY   81  59  47 SE10G17   29.99F
6HR MIN TEMP:  79; 6HR MAX TEMP:  84;

TEMPLE         MOSUNNY   79  55  44 SE17      29.99S
6HR MIN TEMP:  79; 6HR MAX TEMP:  82;

KILLEEN        SUNNY     78  59  51 SE18G25   29.97F
6HR MIN TEMP:  74; 6HR MAX TEMP:  82;

KILLEEN-SKYLRK MOSUNNY   79  57  47 SE15      29.99S
6HR MIN TEMP:  79; 6HR MAX TEMP:  82;

FORT HOOD      MOSUNNY   79  59  49 SE17G25   29.97F HAZE
6HR MIN TEMP:  77; 6HR MAX TEMP:  84;

GATESVILLE     MOSUNNY   81  59  47 SE12G17   30.00S
HAMILTON       PTSUNNY   78  58  51 SE15G25   29.99F
6HR MIN TEMP:  78; 6HR MAX TEMP:  82;

LAMPASAS       MOSUNNY   78  61  55 SE13G22   29.98S
6HR MIN TEMP:  78; 6HR MAX TEMP:  83;

$$

TXZ095>097-106>112-122>126-135>138-148>153-164>167-050100-
EAST TEXAS

CITY           SKY/WX    TMP DP  RH WIND       PRES   REMARKS
PARIS          SUNNY     79  54  41 MISG      30.06F
6HR MIN TEMP:  77; 6HR MAX TEMP:  82;

SULPHUR SPRNGS SUNNY     79  53  39 SE12      30.06F
6HR MIN TEMP:  78; 6HR MAX TEMP:  82;

MOUNT PLEASANT SUNNY     78  58  51 SE7       30.07S
6HR MIN TEMP:  77; 6HR MAX TEMP:  83;

GILMER           N/A    N/A N/A N/A MISG        N/A
MINEOLA        SUNNY     79  52  38 SE5       30.05F
TYLER          SUNNY     77  56  48 SE8       30.04F
6HR MIN TEMP:  77; 6HR MAX TEMP:  84;

LONGVIEW       MOSUNNY   79  57  46 SE8       30.05S
6HR MIN TEMP:  79; 6HR MAX TEMP:  83;

MARSHALL       SUNNY     81  58  46 SE6       30.09R
6HR MIN TEMP:  81; 6HR MAX TEMP:  86;

ATHENS         PTSUNNY   75  55  50 SE3       30.03S
PALESTINE      PTSUNNY   79  56  45 SE9       30.05S
JACKSONVILLE   MOSUNNY   77  54  44 SE5       30.08S
HENDERSON      SUNNY     79  55  43 SE9       30.07S
6HR MIN TEMP:  79; 6HR MAX TEMP:  83;

NACOGDOCHES    SUNNY     77  54  44 SE5       30.05F
6HR MIN TEMP:  77; 6HR MAX TEMP:  82;

LUFKIN         SUNNY     81  57  43 SE6       30.05S
6HR MIN TEMP:  81; 6HR MAX TEMP:  86;

$$

SUPPLEMENTAL OBSERVATIONS (CENTRAL)

CITY           SKY/WX    TMP DP  RH WIND       PRES   REMARKS
LAKE TEXOMA      N/A     79  59  50 SE12        N/A
CADDO GRASSLND   N/A     81  54  39 S7G15       N/A
PAT MAYSE LAKE   N/A     79  54  41 SE12        N/A
GREENVILLE       N/A     77  50  38 SE5G14      N/A
CEDAR HILL       N/A     79  57  47 SE6G17      N/A
ATHENS           N/A     79  57  47 SE7G16      N/A
LAKE LIMESTONE   N/A     79  50  36 SE6         N/A
MCGREGOR         N/A     79  59  50 SE10G21     N/A
TEMPLE           N/A     81  57  44 SE13G21     N/A
$$

SUPPLEMENTAL OBSERVATIONS (WEST)

CITY           SKY/WX    TMP DP  RH WIND       PRES   REMARKS


USA.gov is the U.S. government's official web portal to all federal, state and local government web resources and services.